Aeroporto :
LOGIN :

Iscrizione | Disclaimer

   EN    FR    IT 

 










Sommario :    VFR   VFR Marginale   IFR   IFR Intensivo   IFR Molto Intensivo
Visibilità : 
Base nubi : 
>= 8 km
>= 3000ft
5 / 8 km
1000 / 3000 ft
1500m / 5 km
500 / 1000 ft
800 / 1500m
200 / 500 ft
< 800m
< 200 ft
Simboli :   Temporali  Nebbia  Neve Forte  Precipitazioni Forti  Vento > 20 kt
SIGMETs :   Varie  Temporali  Ghiacco  Turbolenza  Onda orograficha  Ceneri Vulcaniche






- Altitudine del aeroporto : 2059 ft
- Codice IATA : KZI


LGKZ - Filippos

ULTIMO METAR :
  • 010450Z 02004KT CAVOK 08/04 Q1012

METARs OBSOLETI :
  • 010420Z AUTO 35004KT //// // ////// 08/04 Q1012 RE//
  • 010350Z AUTO 36005KT //// // ////// 08/04 Q1012 RE//
  • 010320Z AUTO 33005KT //// // ////// 09/04 Q1012 RE//
  • 010250Z AUTO 03004KT 310V060 //// // ////// 08/04 Q1012 RE//
  • 010220Z AUTO 32004KT 300V360 //// // ////// 09/04 Q1011 RE//
  • 010150Z AUTO 32004KT //// // ////// 09/04 Q1012 RE//

TAF N/A



MetMap, La meteo Aeronautica in un colpo d'occhio ! - Copyright ORBIFLY Dicembre 2007 - Disclaimer

ORBIFLY MET'MAP TEAM :

Programmazione e sviluppo : Alexandra Zaïnal
Concezione : Baudouin d'Aumeries
Aiuto per la programmazione : Marc-Olivier Méhu
Supporto tecnico e logistico : Manuel Goepfert
Aiuto per la traduzione : Arnaldo La Scala

Contatto : metmap@orbifly.com




FONTI E CREDITI :

   NOAA